Volver al catálogo

STARLINK-3338

ActivoComunicacionesVLEO
NORAD 50812·PAYLOAD·🇺🇸 United States

Lanzado Jan 6, 2022 desde Cape Canaveral Space Force Station

Loading…

Próximos Pases (próximas 24 horas)

TLE

ActualizadoSource: CelesTrak SupGP

Época: Sep 14, 2026, 21:35 UTC

1 50812C 22001K   26257.89979167  .00000182  00000+0  53677-5 0  2579
2 50812  53.1598  21.6619 0001127  83.0737 269.0078 15.34389730    19

Sigue STARLINK-3338 en tiempo real con AllMySat

Download on the App Store